OBJECT B, 61895

Orbit data source: Space-Track

You're viewing an Uncataloged Satellite

Recently launched and/or uncataloged satellites may have evolving metadata. Metadata may include but not limited to: Owner, Maufacturer, Bus, Motor, and Mission.

OBJECT B, 61895 is a satellite owned by CASC (CN) in SSO that was launched on Mon, 11 Nov 2024 UTC via a LIJIAN-1 launch vehicle from the Jiuquan Satellite Launch Center, China (JSC). Unknown objects in Earth's orbit typically refer to objects detected orbiting the Earth but have not yet been identified or cataloged. These objects could be anything from previously untracked satellites, spent rocket stages, debris from satellite collisions, or even natural meteoroids temporarily captured by Earth's gravity.

Loading next visibility...
Identifier
61895, 2024-205B
Orbit
SSO
Last TLE update
2 hours ago
Origin
Flag of CNCASC (CN / PRC)
Manufacturer
SECM?
Mission
Operational Defense Technology
Bus & Motor
Unknown
Mass
~100 kg wet, ~100 kg dry
Launch date (UTC)
2024-11-11 (8 months ago)
Launch vehicle
LIJIAN-1
Launch site
Jiuquan Satellite Launch Center, China (JSC)
Object type
Unknown
Shape & HBR
Box + 2 Pan, 5 m
Radar Cross Section
4.795 m², Medium (>0.1 m² and < 1m²)

Expand to show TLE details & history

TLE from 2 hours ago
0 OBJECT B
1 61895U 24205B   25190.21193431  .00006372  00000-0  28799-3 0  9999
2 61895  97.4498 264.9929 0013434 158.5714 201.6087 15.21217342 36381
Epoch: 2025-07-09T05:05Z
TLE epoch observation values (Epoch: 2025-07-09T05:05:11.124Z)
Latitude
Longitude
-98.69926°
Altitude
513.855 km
Speed
7.602 km/s
True Right ascension
17h 39m 58s
True Declination
0° 00' 00"
Sunlit
Object was in full shadow at epoch
Visualization orbit readout
Latitude
52.2328°
Longitude
91.05136°
Altitude
502.765 km
Speed
7.622 km/s
Apparent Right ascension
06h 53m 16s
Apparent Declination
8° 28' 14"
Sunlit
Object is in daylight
Visualization observer readout
Local Sidereal Time
19:22:49
Azimuth
9.718° NNE
Elevation
-41.133°
Doppler factor
1
Orbital elements
Apogee altitude
508.373 km
Perigee altitude
489.895 km
Semi-major axis
6,877.271 km
Eccentricity
0.00134
Inclination
97.4498°
RAAN
264.9929°
Arg. of periapsis
158.5714°
True anomaly
Unknown
Mean anomaly
201.6087°
Eccentric anomaly
Unknown
Mean motion
3.80556 °/min
Orbital period
94.6 mins
BSTAR
0.00028799
Loading maneuver chart data...
Loading SW <> Apogee altitude chart data...
Loading historical data...
Loading historical data...
Loading historical data...
Loading historical data...
Loading historical data...
Loading historical data...
Loading historical data...

OBJECT B Visibility forecast

Observer location: undefined°, undefined°

Span
Click to sort rows by Start time (UTC) header in descending order
Start Az.
Max El. time (UTC)
Max El. Az.
Max El.
End time (UTC)
End Az.
5 mins2025-07-09 18:17:21.558Z346.624° N2025-07-09 18:19:21.558Z287.202° WNW33.739°2025-07-09 18:22:21.558Z217.428° SW
5 mins2025-07-10 04:54:21.558Z154.933° SSE2025-07-10 04:56:21.558Z113.838° SE41.567°2025-07-10 04:59:21.558Z355.94° N
|